This demonstration page uses our WeatherBlox Daily Observations layout. Learn more.

Left ArrowRight Arrow

53.62937, 11.41316

Hourly Observations for March 11, 2018

Temp ( °F °C ) Dew Point ( °F °C ) Humidity (%) Winds ( mph kmh ) Pressure ( in mb ) Visibility ( mi km ) Precip ( " mm )
6:50 am 06:50 Mostly Cloudy with Mist and Fog 45 7 45 7 100 100 SSE 5 7 29.50 999 2 3 N/A
7:20 am 07:20 Mostly Cloudy with Mist and Fog 45 7 45 7 100 100 SSE 5 7 29.50 999 2 3 N/A
7:50 am 07:50 Mostly Cloudy with Mist and Fog 45 7 45 7 100 100 SSE 6 9 29.50 999 2 3 N/A
8:20 am 08:20 Mostly Cloudy with Mist and Fog 46 8 46 8 100 100 SSE 3 6 29.50 999 2 4 N/A
8:50 am 08:50 Mostly Cloudy with Mist and Fog 46 8 46 8 100 100 SSE 5 7 29.50 999 3 4 N/A
9:20 am 09:20 Mostly Cloudy with Mist and Fog 46 8 46 8 100 100 ESE 3 6 29.50 999 3 5 N/A
9:50 am 09:50 Mostly Cloudy 46 8 46 8 100 100 ESE 5 7 29.50 999 3 5 N/A
10:20 am 10:20 Mostly Cloudy 48 9 48 9 100 100 VRB 2 4 29.50 999 4 6 N/A
10:50 am 10:50 Mostly Cloudy 48 9 48 9 100 100 SE 3 6 29.47 998 4 7 N/A
11:20 am 11:20 Mostly Cloudy 50 10 50 10 100 100 SE 3 6 29.47 998 6 9 N/A
11:50 am 11:50 Mostly Cloudy 54 12 52 11 94 94 SE 3 6 29.47 998 30 48 N/A
12:20 pm 12:20 Mostly Sunny 55 13 54 12 94 94 SE 5 7 29.47 998 30 48 N/A
12:50 pm 12:50 Mostly Sunny 57 14 52 11 82 82 SSE 9 15 29.44 997 30 48 N/A
1:20 pm 13:20 Mostly Sunny 57 14 52 11 82 82 SSE 8 13 29.44 997 30 48 N/A
1:50 pm 13:50 Partly Cloudy 59 15 50 10 72 72 SSE 8 13 29.44 997 30 48 N/A
2:20 pm 14:20 Mostly Sunny 59 15 50 10 72 72 SE 8 13 29.41 996 30 48 N/A
2:50 pm 14:50 Mostly Sunny 59 15 50 10 72 72 SSE 8 13 29.41 996 30 48 N/A
3:20 pm 15:20 Partly Cloudy 59 15 50 10 72 72 SSE 8 13 29.41 996 30 48 N/A
3:50 pm 15:50 Mostly Sunny 57 14 50 10 77 77 SE 6 9 29.41 996 7 11 N/A
4:20 pm 16:20 Mostly Sunny 57 14 50 10 77 77 ESE 6 9 29.38 995 7 11 N/A
4:50 pm 16:50 Mostly Sunny 57 14 50 10 77 77 SE 6 9 29.38 995 7 11 N/A
5:20 pm 17:20 Partly Cloudy 57 14 50 10 77 77 SE 5 7 29.38 995 30 48 N/A
5:50 pm 17:50 Mostly Sunny 55 13 50 10 82 82 SE 5 7 29.38 995 7 11 N/A
6:20 pm 18:20 Mostly Clear 55 13 50 10 82 82 ESE 5 7 29.38 995 7 11 N/A

Powered by AerisWeather